sat.trackr.live / text

‹ back to catalog

STARLINK-31896

NORAD 59851 · 2024-097S

PAYLOAD ACTIVE UNKNOWN

§ Identity

Operator
Country
US
Launch date
2024-05-23
Launch site
AFETR
Launch vehicle
Mass (kg)
RCS (m²)

Purposes: comms

External: N2YO · Heavens-Above · Gunter

§ Orbital elements

Epoch: 2026-05-24T12:23:00.337632Z

Period
94.27 min
Inclination
43.0002°
Eccentricity
0.0001771
Mean motion
15.27564699 rev/d
Perigee alt
481.9 km
Apogee alt
484.3 km
Semi-major
6,861.2 km
B*
6.3708e-5
RAAN
206.1172°
Arg perigee
281.8799°
Mean anomaly
78.1854°
Rev number
11,351

§ Raw data

STARLINK-318961 59851U 24097S   26144.51597613  .00001490  00000+0  63708-4 0  99952 59851  43.0002 206.1172 0001771 281.8799  78.1854 15.27564699113516

JSON: /api/v1/satellites/59851 · /tle

For live sub-satellite position, see the globe view (requires WebGL).

§ Visibility from observer

Set your observer location to see the next 7 days of passes ≥ 10°. The values pass through the URL so the page stays shareable.

No JS? Fill the form by hand. The geolocation button needs JavaScript.